Location: P�rn�nmaa
(61.1833°N, 23.0000°E)
Time: 19:30:30
(UTC+00:00)

Meteor 1-5 Rocket - Pass Details

Date: 08 December 2019
Orbit: 788 x 916 km, 81.2° (Epoch: 17 January)

Event Time Altitude Azimuth Distance (km) Brightness Sun altitude
Rises 15:19:18 0° 342° (NNW) 3,475 7.3 -12.9°
Reaches altitude 10° 15:21:47 10° 342° (NNW) 2,514 6.6 -13.1°
Maximum altitude 15:27:30 89° 74° (ENE) 849 4.2 -13.8°
Drops below altitude 10° 15:32:59 10° 164° (SSE) 2,414 6.6 -14.4°
Sets 15:35:20 0° 165° (SSE) 3,326 7.4 -14.6°
